DELTA 1 DEB, 10762

Orbit data source: Space-Track

DELTA 1 DEB, 10762 is space debris in LEO originally from a launch on Thu, 29 Jul 1976 UTC launched from the Air Force Western Test Range (AFWTR). Debris objects in space refer to the collection of defunct objects orbiting the Earth. Examples of debris include non-operational satellites, rocket bodies, and fragments generated from explosions, collisions, or faulty payload assembly.

Loading next visibility...
Identifier
10762, 1976-077BK
Orbit
LEO
Country
Flag of USUS
Related business
Manufacturer
Unknown
Mission
Spacecraft
Bus & Motor
Unknown
Mass
Unknown
Launch date (UTC)
1976-07-29 (50 years ago)
Launch vehicle
Unknown
Launch site
Air Force Western Test Range (AFWTR)
Object type
Payload
Rocket body
Debris
Shape & HBR
Unknown shape, 0.5 m
Radar Cross Section
Medium (>0.1 m² and <1 m²)

Expand to show TLE details & history
Last TLE update: 8 hours ago

TLE from 8 hours ago
0 DELTA 1 DEB
1 10762U 76077BK  26122.47040595  .00003373  00000-0  39928-1 0  9998
2 10762 102.5776 203.8636 0575363  31.1772 332.2090 11.69383508589368
Epoch: 2026-05-02T11:17Z
TLE epoch observation values (Epoch: 2026-05-02T11:17:23.074Z)
Latitude
-0.00008°
Longitude
174.12963°
Altitude
1,412.342 km
Speed
7.331 km/s
True Right ascension
13h 35m 27s
True Declination
0° 00' 00"
Sunlit
Object was in full shadow at epoch
Visualization orbit readout
Latitude
Unknown
Longitude
Unknown
Altitude
Unknown
Speed
Unknown
Apparent Right ascension
Unknown
Apparent Declination
Unknown
Sunlit
N/A
Visualization observer readout
Local Sidereal Time
02:46:11
Azimuth
Unknown
Elevation
Unknown
Doppler factor
Unknown
Orbital elements
Apogee altitude
2,290.22 km
Perigee altitude
1,346.999 km
Semi-major axis
8,196.747 km
Eccentricity
0.05754
Inclination
102.5776°
RAAN
203.8636°
Arg. of periapsis
31.1772°
True anomaly
328.9285°
Mean anomaly
332.209°
Eccentric anomaly
330.5902°
Mean motion
2.9247 °/min
Orbital period
123.09 mins
BSTAR
0.039928
Loading maneuver chart data...
Computing Atmospheric mass density...
Loading historical data...
Loading historical data...
Loading historical data...
Loading historical data...
Loading historical data...
Loading historical data...
Loading historical data...

Documentation

Showing up to 5 results
|